User: anonymous   Login
Location: Unspecified
(0.0000°N, 0.0000°E)
Time: 19:01:57
(UTC+00:00)
Language:

STARLINK-3781 - Orbit

View from above orbital plane
View from above orbital plane
View from above satellite
View from above satellite

Ground track
Ground track

The orbit is defined by the following mean orbital elements,

1 52272U          26145.25697080 +.00000000 +00000-0 +22985-4 0 00006
2 52272  53.2132 125.4364 0001053  72.6761 287.4346 15.08837930    07
Epoch (UTC): 25 May 2026 06:10:02
Eccentricity: 0.0001053
inclination: 53.2132°
perigee height: 539 km
apogee height: 540 km
right ascension of ascending node: 125.4364°
argument of perigee: 72.6761°
revolutions per day: 15.08837930
mean anomaly at epoch: 287.4346°

The dashed part of the orbit path shows where the satellite is in the earth's shadow,  

DLR